LEMUR-2-OZARAK

Last updated on Tue Dec 08 2020 00:02:03 GMT+0000 (Coordinated Universal Time)

1 46908U 20081D 20342.55404377 .00001911 00000-0 16152-3 0 9994 2 46908 36.9047 281.5129 0007956 224.5648 135.4453 14.98864845 4527
UTC large
Height (km)
Speed (km/s)
/
Latitude / Longitude
Inclination (degrees)
Orbital Period (minutes)
Azimuth
Elevation
Range (km)
Doppler Factor

Next 0 passes for location: London (51.5072 / 0.1276)

Sorry there are no passes over London.